Weather History for KMRT - November, 2013

Change the Weather History Date:

Wednesday, November 6, 2013

  Actual Average (KCMH) Record (KCMH)
Temperature  
Mean Temperature 54 °F 48 °F  
Max Temperature 62 °F 57 °F 77 °F (1975)
Min Temperature 44 °F 39 °F 20 °F (1953)
Degree Days  
Heating Degree Days 10 17  
Month to date heating degree days 97  
Since 1 July heating degree days 491  
Cooling Degree Days 0 0  
Month to date cooling degree days 0  
Year to date cooling degree days 1024  
Growing Degree Days 4 (Base 50)    
Moisture  
Dew Point 44 °F    
Average Humidity 70    
Maximum Humidity 89    
Minimum Humidity 48    
Precipitation  
Precipitation 0.00 in 0.10 in 1.91 in (1880)
Month to date precipitation 0.61  
Year to date precipitation 33.75  
Snow  
Snow 0.00 in 0.00 in 1.80 in (1971)
Month to date snowfall 0.1  
Since 1 July snowfall 0.3  
Since 1 September snowfall 0.3  
Snow Depth -    
Sea Level Pressure  
Sea Level Pressure 30.06 in    
Wind  
Wind Speed 10 mph (SW)    
Max Wind Speed 24 mph    
Max Gust Speed 33 mph    
Visibility 9 miles    
Events      
T = Trace of Precipitation, MM = Missing Value Source: NWS Daily Summary

Daily Weather History Graph

Daily Weather History Graph

Search for Another Location

Airport or City:

Trip Planner

Search our weather history database for the weather conditions in past years. The results will help you decide how hot, cold, wet, or windy it might be!

Date:

Astronomy

Nov. 06, 2013 Rise Set
Actual Time 7:08 AM EST 5:24 PM EST
Civil Twilight 6:40 AM EST 5:53 PM EST
Nautical Twilight 6:07 AM EST 6:25 PM EST
Astronomical Twilight 5:36 AM EST 6:57 PM EST
Moon 10:22 AM EST (11/6) 8:27 PM EST (11/6)
Length of Visible Light 11h 12m
Length of Day
10h 15m
Waxing Crescent, 13% of the Moon is Illuminated
Nov 6
Waxing Crescent
Nov 10
First Quarter
Nov 17
Full
Nov 25
Last Quarter
Dec 2
New

Hourly Weather History & Observations

Time (EST) Temp. Windchill Dew Point Humidity Pressure Visibility Wind Dir Wind Speed Gust Speed Precip Events Conditions
12:13 AM 48.4 °F - 35.6 °F 61% 30.24 in 10.0 mi SSE 3.5 mph - N/A   Clear
12:34 AM 48.4 °F - 35.6 °F 61% 30.23 in 10.0 mi South 4.6 mph - N/A   Clear
12:53 AM 48.2 °F - 35.6 °F 62% 30.22 in 10.0 mi South 5.8 mph - N/A   Clear
1:13 AM 48.2 °F - 35.2 °F 61% 30.22 in 10.0 mi South 6.9 mph - N/A   Clear
1:34 AM 47.5 °F - 35.8 °F 64% 30.21 in 10.0 mi South 5.8 mph - N/A   Scattered Clouds
1:53 AM 48.0 °F - 35.2 °F 61% 30.20 in 10.0 mi SSW 9.2 mph - N/A   Scattered Clouds
2:13 AM 47.7 °F - 35.2 °F 62% 30.19 in 10.0 mi South 6.9 mph - N/A   Scattered Clouds
2:34 AM 47.5 °F - 36.0 °F 64% 30.19 in 10.0 mi South 6.9 mph - N/A   Mostly Cloudy
2:53 AM 47.7 °F - 35.2 °F 62% 30.19 in 10.0 mi SSW 8.1 mph - N/A   Mostly Cloudy
3:13 AM 47.5 °F - 35.6 °F 63% 30.18 in 10.0 mi SSW 8.1 mph - N/A   Scattered Clouds
3:34 AM 47.7 °F - 35.6 °F 63% 30.17 in 10.0 mi South 10.4 mph - N/A   Scattered Clouds
3:53 AM 47.5 °F - 35.6 °F 63% 30.16 in 10.0 mi SSW 9.2 mph - N/A   Clear
4:13 AM 47.5 °F - 35.4 °F 63% 30.16 in 10.0 mi SSW 10.4 mph - N/A   Clear
4:34 AM 48.0 °F - 35.6 °F 62% 30.16 in 10.0 mi SSW 12.7 mph 17.3 mph N/A   Mostly Cloudy
4:53 AM 47.7 °F - 35.8 °F 63% 30.16 in 10.0 mi SSW 10.4 mph - N/A   Scattered Clouds
5:14 AM 47.7 °F - 36.0 °F 64% 30.16 in 10.0 mi SSW 11.5 mph - N/A   Scattered Clouds
5:33 AM 47.7 °F - 36.0 °F 64% 30.15 in 10.0 mi SSW 10.4 mph - N/A   Scattered Clouds
5:53 AM 48.2 °F - 36.0 °F 63% 30.15 in 10.0 mi SSW 11.5 mph - N/A   Mostly Cloudy
6:14 AM 48.4 °F - 36.1 °F 63% 30.14 in 10.0 mi SSW 10.4 mph - N/A   Overcast
6:33 AM 48.2 °F - 36.5 °F 64% 30.13 in 10.0 mi SSW 9.2 mph - N/A   Mostly Cloudy
6:53 AM 48.6 °F - 36.1 °F 62% 30.13 in 10.0 mi SSW 11.5 mph - N/A   Scattered Clouds
7:14 AM 48.2 °F - 35.8 °F 62% 30.12 in 10.0 mi SSW 10.4 mph - N/A   Scattered Clouds
7:33 AM 47.8 °F - 36.1 °F 64% 30.12 in 10.0 mi SSW 9.2 mph - N/A   Clear
7:53 AM 48.4 °F - 36.5 °F 64% 30.12 in 10.0 mi SSW 6.9 mph - N/A   Scattered Clouds
8:13 AM 48.7 °F - 36.7 °F 63% 30.11 in 10.0 mi SSW 8.1 mph - N/A   Scattered Clouds
8:33 AM 49.8 °F - 36.7 °F 61% 30.11 in 10.0 mi SSW 8.1 mph - N/A   Scattered Clouds
8:54 AM 50.4 °F - 36.7 °F 59% 30.12 in 10.0 mi SSW 8.1 mph - N/A   Overcast
9:13 AM 51.6 °F - 37.2 °F 58% 30.11 in 10.0 mi SSW 10.4 mph - N/A   Overcast
9:33 AM 53.1 °F - 37.6 °F 56% 30.10 in 10.0 mi SSW 10.4 mph - N/A   Overcast
9:54 AM 55.6 °F - 38.1 °F 52% 30.10 in 10.0 mi SSW 12.7 mph 17.3 mph N/A   Overcast
10:13 AM 58.3 °F - 38.7 °F 48% 30.09 in 10.0 mi SSW 15.0 mph 20.7 mph N/A   Overcast
10:33 AM 58.5 °F - 39.2 °F 49% 30.09 in 10.0 mi SSW 16.1 mph 24.2 mph N/A   Overcast
10:54 AM 59.4 °F - 41.2 °F 51% 30.09 in 10.0 mi SSW 13.8 mph 23.0 mph N/A   Overcast
11:13 AM 60.4 °F - 43.7 °F 54% 30.08 in 10.0 mi SW 15.0 mph 24.2 mph N/A   Overcast
11:33 AM 61.3 °F - 44.6 °F 54% 30.07 in 10.0 mi SSW 19.6 mph 24.2 mph N/A   Overcast
11:54 AM 62.1 °F - 46.9 °F 58% 30.06 in 10.0 mi SSW 23.0 mph 33.4 mph N/A   Overcast
12:13 PM 62.2 °F - 46.8 °F 57% 30.05 in 10.0 mi SW 24.2 mph 31.1 mph N/A   Mostly Cloudy
12:33 PM 62.1 °F - 47.7 °F 59% 30.03 in 10.0 mi SW 20.7 mph 28.8 mph N/A   Scattered Clouds
12:54 PM 62.1 °F - 47.7 °F 59% 30.02 in 10.0 mi SW 15.0 mph 23.0 mph N/A   Scattered Clouds
1:13 PM 61.5 °F - 48.4 °F 62% 30.02 in 10.0 mi SW 17.3 mph 20.7 mph N/A   Mostly Cloudy
1:33 PM 61.2 °F - 49.5 °F 65% 30.01 in 10.0 mi SW 17.3 mph 23.0 mph N/A   Overcast
1:54 PM 60.8 °F - 50.2 °F 68% 30.00 in 10.0 mi SW 17.3 mph 26.5 mph N/A   Overcast
2:13 PM 60.1 °F - 50.9 °F 72% 30.00 in 10.0 mi SW 15.0 mph 24.2 mph N/A   Overcast
2:33 PM 60.3 °F - 50.9 °F 71% 29.99 in 10.0 mi SW 13.8 mph 21.9 mph N/A   Overcast
2:53 PM 60.1 °F - 51.3 °F 73% 29.98 in 7.0 mi SSW 13.8 mph 19.6 mph N/A   Overcast
3:13 PM 59.9 °F - 51.8 °F 75% 29.97 in 10.0 mi SW 13.8 mph 20.7 mph N/A   Overcast
3:34 PM 60.8 °F - 51.8 °F 72% 29.97 in 10.0 mi SW 15.0 mph 25.3 mph N/A   Overcast
3:53 PM 60.1 °F - 52.3 °F 76% 29.97 in 5.0 mi SSW 15.0 mph - N/A   Overcast
4:13 PM 59.4 °F - 52.9 °F 79% 29.96 in 10.0 mi SSW 12.7 mph 19.6 mph N/A   Overcast
4:33 PM 59.2 °F - 53.2 °F 81% 29.97 in 7.0 mi SW 18.4 mph 23.0 mph N/A   Overcast
4:53 PM 58.8 °F - 54.1 °F 84% 29.97 in 3.0 mi SW 17.3 mph 23.0 mph N/A   Overcast
5:13 PM 58.6 °F - 54.7 °F 87% 29.97 in 4.0 mi WSW 17.3 mph 23.0 mph N/A   Overcast
5:33 PM 59.0 °F - 54.9 °F 86% 29.97 in 5.0 mi SW 16.1 mph 21.9 mph N/A   Overcast
5:53 PM 58.6 °F - 54.9 °F 87% 29.97 in 5.0 mi WSW 13.8 mph 19.6 mph N/A   Overcast
6:13 PM 58.5 °F - 55.0 °F 88% 29.97 in 5.0 mi WSW 12.7 mph 18.4 mph N/A   Overcast
6:33 PM 58.3 °F - 55.0 °F 89% 29.97 in 10.0 mi WSW 11.5 mph 17.3 mph N/A   Overcast
6:53 PM 58.3 °F - 55.0 °F 89% 29.97 in 7.0 mi WSW 13.8 mph 19.6 mph N/A   Overcast
7:13 PM 58.3 °F - 54.9 °F 88% 29.97 in 10.0 mi WSW 10.4 mph - N/A   Overcast
7:33 PM 58.5 °F - 54.9 °F 88% 29.97 in 10.0 mi WSW 12.7 mph - N/A   Overcast
7:53 PM 58.3 °F - 54.5 °F 87% 29.97 in 10.0 mi West 13.8 mph - N/A   Overcast
8:13 PM 57.6 °F - 53.4 °F 86% 29.96 in 10.0 mi West 12.7 mph - N/A   Overcast
8:33 PM 57.2 °F - 53.1 °F 86% 29.95 in 10.0 mi West 9.2 mph - N/A   Overcast
8:54 PM 56.7 °F - 52.9 °F 87% 29.96 in 10.0 mi West 9.2 mph - N/A   Overcast
9:13 PM 56.5 °F - 52.7 °F 87% 29.97 in 5.0 mi West 12.7 mph - N/A   Overcast
9:33 PM 55.8 °F - 52.2 °F 88% 29.96 in 7.0 mi West 13.8 mph - N/A   Overcast
9:54 PM 55.4 °F - 51.8 °F 88% 29.96 in 4.0 mi West 9.2 mph - N/A   Overcast
10:13 PM 54.7 °F - 51.4 °F 89% 29.97 in 5.0 mi WNW 10.4 mph - N/A   Overcast
10:33 PM 50.2 °F - 46.2 °F 86% 29.99 in 4.0 mi NW 16.1 mph 25.3 mph N/A   Overcast
10:54 PM 49.1 °F - 45.1 °F 86% 30.00 in 5.0 mi NW 13.8 mph 20.7 mph N/A   Overcast
11:13 PM 48.2 °F - 44.2 °F 86% 29.99 in 7.0 mi NNW 11.5 mph 19.6 mph N/A   Overcast
11:33 PM 47.7 °F - 43.9 °F 87% 30.00 in 7.0 mi NW 8.1 mph 11.5 mph N/A   Overcast
11:54 PM 44.8 °F 38.7 °F 41.4 °F 88% 30.01 in 7.0 mi NNW 12.7 mph - N/A   Overcast